Location: Quaker Farms
(41.4276°N, 73.1557°W)
Time: 01:23:03
(UTC+00:00)

Altair - Pass Details

Date: 15 June 2021
Orbit: 1501 x 1682 km, 47.2° (Epoch: 23 July)

Event Time Altitude Azimuth Distance (km) Brightness Sun altitude
Rises 04:01:04 0° 288° (WNW) 4,914 10.6 -24.1°
Reaches altitude 10° 04:06:08 10° 268° (W) 3,938 9.7 -24.3°
Maximum altitude 04:11:04 15° 238° (WSW) 3,559 9.2 -24.5°
Enters shadow 04:13:13 14° 224° (SW) 3,632 9.1 -24.6°
Drops below altitude 10° 04:16:01 10° 208° (SSW) 3,932 - -24.7°
Sets 04:21:08 0° 186° (S) 4,902 - -24.8°
